User: anonymous   Login
Location: Caltech
(34.1382°N, 118.1253°W)
Time: 17:06:11
(UTC-07:00)
Language:

ASTRO E2 - Orbit

View from above orbital plane
View from above orbital plane
View from above satellite
View from above satellite

Ground track
Ground track

The orbit data is extracted from the following two-line orbital elements,

1 28773U 05025A   15188.19580274  .00003202  00000-0  17220-3 0  9990
2 28773 031.3822 218.9055 0004874 063.1505 296.9639 15.13020666549463
Epoch (UTC): 07 July 2015 04:41:57
Eccentricity: 0.0004874
inclination: 31.3822°
perigee height: 523 km
apogee height: 530 km
right ascension of ascending node: 218.9055°
argument of perigee: 63.1505°
revolutions per day: 15.13020666
mean anomaly at epoch: 296.9639°
orbit number at epoch: 54946

The dashed part of the orbit path shows where the satellite is in the earth's shadow,  

DLR